Location: ????????
(56.0167°N, 38.0333°E)
Time: 09:41:44
(UTC+00:00)

Cosmos 1812 Rocket - Pass Details

Date: 19 May 2025
Orbit: 600 x 624 km, 82.5° (Epoch: 12 June)

Event Time Altitude Azimuth Distance (km) Brightness Sun altitude
Exits shadow 19:11:59 - 182° (S) 2,170 5.9 -9.0°
Reaches altitude 10° 19:12:33 10° 182° (S) 1,943 5.6 -9.1°
Maximum altitude 19:16:49 71° 99° (E) 642 3.5 -9.4°
Drops below altitude 10° 19:21:08 10° 16° (NNE) 1,963 6.8 -9.7°
Sets 19:23:22 0° 14° (NNE) 2,874 7.8 -9.8°
